[[{"header":{"parameterUnit":"m.s-1","parameterCategory":1,"la1":30.2991,"la2":30.254,"lo1":-89.0895,"lo2":-89.0444,"dy":0.0017,"dx":0.0017,"nx":28,"ny":28,"refTime":"2025-09-06T21:00:00:Z","depth":0,"parameterNumber":2,"parameterNumberName":"U-component_of_WINDS"},"data":[0,0,0,0,0,0,0,0,0,0,0,0,0,0,0,0,0,0,0,0,0,0,0,0,0,0,0,0,0,0,0,0,0,0,0,0,0,0,0,0,0,0,0,0,0,0,0,0,0,0,0,0,0,0,0,0,0,0,-1.6381,-1.6381,0,-1.6312,-1.6311,-1.631,-1.6182,-1.6179,-1.6177,-1.6175,-1.6104,-1.6105,-1.6105,0,0,0,0,0,0,0,0,0,0,0,0,0,-1.64,-1.6401,-1.6381,-1.6381,-1.638,-1.6312,-1.6311,-1.631,-1.6182,-1.6179,-1.6176,-1.6173,-1.6104,-1.6105,-1.6105,0,0,0,0,0,0,0,0,0,0,0,0,0,-1.6368,-1.6401,-1.6382,-1.6308,-1.63,-1.6312,-1.6311,-1.631,-1.6183,-1.6179,-1.6175,-1.6172,-1.6104,-1.6105,-1.6105,-1.6183,0,0,-1.6107,-1.6108,0,0,0,0,0,0,0,0,-1.637,-1.6367,-1.6319,-1.6313,-1.6305,-1.6252,-1.6292,-1.6267,-1.6184,-1.6228,-1.6175,-1.617,-1.6156,-1.6152,-1.6148,-1.618,-1.6177,-1.6107,-1.6108,-1.6108,-1.6108,0,0,0,0,0,0,0,-1.6372,-1.6369,-1.6354,-1.6319,-1.631,-1.6277,-1.6268,-1.6286,-1.6214,-1.6224,-1.6214,-1.6207,-1.6152,-1.6147,-1.6145,-1.6176,-1.6107,-1.6108,-1.6108,-1.6109,-1.6263,-1.6266,0,0,0,0,0,0,-1.6385,-1.6372,-1.6356,-1.6352,-1.6329,-1.628,-1.627,-1.6272,-1.6213,-1.62,-1.6211,-1.6202,-1.6148,-1.6144,-1.6142,-1.6227,-1.6108,-1.6109,-1.6109,-1.6259,-1.6264,-1.6268,0,0,0,0,0,0,-1.6386,-1.6385,-1.6359,-1.6359,-1.6353,-1.6283,-1.6287,-1.6273,-1.6269,-1.6203,-1.619,-1.622,-1.6145,-1.6141,-1.6173,-1.6223,-1.6109,-1.6109,-1.6255,-1.6261,-1.6266,-1.6399,0,0,0,0,0,0,-1.6388,-1.6386,-1.6417,-1.6361,-1.6354,-1.6393,-1.629,-1.6274,-1.627,-1.6258,-1.6208,-1.6197,-1.6142,-1.6172,-1.6173,-1.6221,-1.611,-1.625,-1.6257,-1.6264,-1.639,-1.6408,-1.6424,0,0,0,0,0,-1.6389,-1.6459,-1.6419,-1.6418,-1.639,-1.6396,-1.6392,-1.6327,-1.6275,-1.6303,-1.626,-1.6198,-1.6216,-1.6177,-1.6177,-1.6226,-1.6247,-1.6255,-1.6263,-1.6382,-1.6405,-1.6424,0,0,0,0,0,0,-1.6525,-1.645,-1.6406,-1.646,-1.6435,-1.6374,-1.6409,-1.6353,-1.6343,-1.6333,-1.6252,-1.6242,-1.6283,-1.6257,-1.6214,-1.6295,-1.6221,-1.623,-1.6312,-1.6333,-1.6349,-1.6356,-1.611,0,0,0,0,0,-1.656,-1.6571,-1.6505,-1.6559,-1.6549,-1.6481,-1.6481,-1.6432,-1.6404,-1.6393,-1.6352,-1.6327,-1.6325,-1.6327,-1.6323,-1.6384,-1.637,-1.6417,-1.6434,-1.6449,-1.6458,-1.6484,-1.6503,-1.6295,-1.6295,-1.6295,0,0,-1.6636,-1.6596,-1.6608,-1.6585,-1.656,-1.6572,-1.6474,-1.6491,-1.6499,-1.6396,-1.6423,-1.6391,-1.6356,-1.6402,-1.642,-1.6382,-1.6511,-1.6459,-1.6471,-1.6473,-1.6494,-1.6514,-1.6532,-1.6301,-1.63,-1.6299,0,0,-1.6778,-1.675,-1.679,-1.6766,-1.6728,-1.6681,-1.6691,-1.6637,-1.6612,-1.6637,-1.6559,-1.6565,-1.6567,-1.6544,-1.6532,-1.6659,-1.66,-1.6659,-1.675,-1.6777,-1.6793,-1.6807,-1.685,-1.6867,-1.6668,-1.6668,-1.6669,0,-1.6877,-1.6892,-1.6818,-1.684,-1.683,-1.6734,-1.6773,-1.6753,-1.6716,-1.6711,-1.6668,-1.6663,-1.6634,-1.6671,-1.6701,-1.6695,-1.6702,-1.6666,-1.6797,-1.681,-1.6822,-1.6862,-1.6879,-1.6676,-1.6675,-1.6674,-1.6674,0,-1.7014,-1.7025,-1.7062,-1.7027,-1.7021,-1.7051,-1.698,-1.6982,-1.6932,-1.689,-1.6913,-1.6873,-1.6857,-1.6861,-1.6814,-1.689,-1.6867,-1.6811,-1.6736,-1.6851,-1.6887,-1.6902,-1.6687,-1.6684,-1.6682,-1.668,0,0,-1.7247,-1.7165,-1.718,-1.7161,-1.7108,-1.7115,-1.7138,-1.7121,-1.7124,-1.71,-1.7116,-1.7116,-1.7062,-1.7049,-1.6997,-1.702,-1.7119,-1.696,-1.6958,-1.6991,-1.7197,-1.724,-1.7259,-1.7078,-1.7081,-1.7083,-1.7199,0,-1.7379,-1.7415,-1.7346,-1.7398,-1.7406,-1.7311,-1.733,-1.7299,-1.7258,-1.7257,-1.7211,-1.7212,-1.7142,-1.7132,-1.715,-1.7104,-1.716,-1.7094,-1.7092,-1.7093,-1.7105,-1.7279,-1.7325,-1.7438,-1.7213,-1.7216,-1.7217,0,-1.754,-1.7521,-1.7574,-1.7513,-1.7514,-1.7533,-1.7509,-1.7509,-1.747,-1.7438,-1.742,-1.7357,-1.7373,-1.7298,-1.7317,-1.7274,-1.7267,-1.7243,-1.7246,-1.7245,-1.7164,-1.7282,-1.7472,-1.7489,-1.7239,-1.7238,-1.7236,0,-1.7703,-1.7691,-1.7719,-1.7706,-1.7637,-1.7651,-1.7623,-1.758,-1.7572,-1.755,-1.7543,-1.7524,-1.7514,-1.7499,-1.7431,-1.7383,-1.7457,-1.7377,-1.7429,-1.7431,-1.7452,-1.7452,-1.7644,-1.7447,-1.7447,-1.7446,-1.7446,0,-1.7859,-1.7895,-1.7791,-1.781,-1.7845,-1.7762,-1.7799,-1.7761,-1.7722,-1.7729,-1.7645,-1.7653,-1.7563,-1.756,-1.7506,-1.7528,-1.7524,-1.7497,-1.7483,-1.7506,-1.7509,-1.7502,-1.7493,-1.7451,-1.745,-1.7449,-1.7448,0,-1.805,-1.7982,-1.8006,-1.7936,-1.7919,-1.7948,-1.7888,-1.79,-1.785,-1.786,-1.7857,-1.778,-1.7772,-1.7701,-1.7678,-1.7641,-1.7683,-1.7654,-1.7697,-1.7688,-1.7743,-1.7739,-1.7939,-1.796,-1.775,-1.7752,-1.7754,0,-1.8155,-1.818,-1.811,-1.8108,-1.8083,-1.8082,-1.8072,-1.799,-1.7983,-1.7936,-1.7953,-1.7937,-1.7921,-1.7911,-1.7852,-1.7832,-1.7801,-1.7872,-1.7798,-1.7818,-1.7801,-1.7801,-1.7801,-1.7889,-1.7892,-1.7894,-1.7896,0,-1.8348,-1.8311,-1.8301,-1.8277,-1.8267,-1.8244,-1.8217,-1.8219,-1.8128,-1.8124,-1.8113,-1.81,-1.8073,-1.8057,-1.8026,-1.7994,-1.7929,-1.7918,-1.7929,-1.7954,-1.7978,-1.7964,-1.7741,-1.7915,-1.7913,-1.7912,-1.7911,-1.791,-1.8499,-1.8514,-1.8467,-1.8456,-1.8425,-1.84,-1.8406,-1.8356,-1.8345,-1.8317,-1.8268,-1.8263,-1.8217,-1.8167,-1.814,-1.8134,-1.8096,-1.8113,-1.8117,-1.8122,-1.8133,-1.7977,-1.8128,-1.8127,-1.8126,-1.8126,-1.8125,0,-1.8687,-1.865,-1.864,-1.8602,-1.8593,-1.8529,-1.8493,-1.849,-1.8487,-1.8449,-1.8432,-1.8417,-1.84,-1.8337,-1.8312,-1.8318,-1.8288,-1.8315,-1.8314,-1.8307,-1.8169,-1.8162,-1.834,-1.834,-1.834,-1.834,-1.834,-1.834,-1.8784,-1.8806,-1.8763,-1.8767,-1.8729,-1.8723,-1.8708,-1.8682,-1.8651,-1.8638,-1.8622,-1.858,-1.853,-1.85,-1.848,-1.8461,-1.8456,-1.8493,-1.8465,-1.8338,-1.8318,-1.8298,-1.8291,-1.8493,-1.8493,-1.8603,-1.8604,-1.8605]},{"header":{"parameterUnit":"m.s-1","parameterCategory":1,"la1":30.2991,"la2":30.254,"lo1":-89.0895,"lo2":-89.0444,"dy":0.0017,"dx":0.0017,"nx":28,"ny":28,"refTime":"2025-09-06T21:00:00:Z","depth":0,"parameterNumber":3,"parameterNumberName":"V-component_of_WINDS"},"data":[0,0,0,0,0,0,0,0,0,0,0,0,0,0,0,0,0,0,0,0,0,0,0,0,0,0,0,0,0,0,0,0,0,0,0,0,0,0,0,0,0,0,0,0,0,0,0,0,0,0,0,0,0,0,0,0,0,0,-5.5026,-5.5027,0,-5.5171,-5.5172,-5.5174,-5.5139,-5.5136,-5.5133,-5.5131,-5.5279,-5.5286,-5.5292,0,0,0,0,0,0,0,0,0,0,0,0,0,-5.4719,-5.4725,-5.5026,-5.5028,-5.5029,-5.517,-5.5172,-5.5174,-5.5139,-5.5136,-5.5133,-5.5129,-5.5277,-5.5285,-5.5293,0,0,0,0,0,0,0,0,0,0,0,0,0,-5.4857,-5.4727,-5.5025,-5.5029,-5.5031,-5.517,-5.5172,-5.5175,-5.514,-5.5136,-5.5132,-5.5128,-5.5275,-5.5284,-5.5294,-5.5439,0,0,-5.5324,-5.5328,0,0,0,0,0,0,0,0,-5.4849,-5.4868,-5.5027,-5.5029,-5.5031,-5.5132,-5.5119,-5.5263,-5.5141,-5.5099,-5.5131,-5.5126,-5.5234,-5.5247,-5.5283,-5.5446,-5.5452,-5.5325,-5.5331,-5.5335,-5.5338,0,0,0,0,0,0,0,-5.484,-5.4862,-5.5083,-5.5029,-5.5032,-5.5023,-5.5038,-5.5146,-5.5188,-5.5102,-5.51,-5.5117,-5.5234,-5.5274,-5.5286,-5.5454,-5.5325,-5.5333,-5.5339,-5.5343,-5.5742,-5.5746,0,0,0,0,0,0,-5.4828,-5.4854,-5.5078,-5.5087,-5.4928,-5.5032,-5.5049,-5.5104,-5.5187,-5.5195,-5.5121,-5.5115,-5.5259,-5.5275,-5.5291,-5.5466,-5.5335,-5.5344,-5.535,-5.5737,-5.5743,-5.5748,0,0,0,0,0,0,-5.4822,-5.4849,-5.5073,-5.497,-5.4998,-5.5042,-5.5104,-5.5109,-5.5149,-5.5201,-5.5208,-5.5153,-5.5256,-5.5278,-5.5402,-5.547,-5.5349,-5.5358,-5.5732,-5.5739,-5.5746,-5.5816,0,0,0,0,0,0,-5.4813,-5.4846,-5.4902,-5.4972,-5.5004,-5.5181,-5.5109,-5.5115,-5.5166,-5.516,-5.5233,-5.5242,-5.5255,-5.5388,-5.5412,-5.5482,-5.5365,-5.5726,-5.5735,-5.5743,-5.5808,-5.5824,-5.5839,0,0,0,0,0,-5.4802,-5.4916,-5.4905,-5.4932,-5.5074,-5.5185,-5.5203,-5.5216,-5.5171,-5.5227,-5.5261,-5.5239,-5.5459,-5.5401,-5.5428,-5.5502,-5.5722,-5.5732,-5.5743,-5.5801,-5.5821,-5.5838,0,0,0,0,0,0,-5.4853,-5.4925,-5.4914,-5.5053,-5.5113,-5.5179,-5.525,-5.5237,-5.5311,-5.5302,-5.5315,-5.5332,-5.5459,-5.5493,-5.5426,-5.5646,-5.5584,-5.56,-5.5619,-5.5639,-5.5654,-5.5643,-5.5373,0,0,0,0,0,-5.4881,-5.4965,-5.5023,-5.5141,-5.5172,-5.5206,-5.5255,-5.5259,-5.5322,-5.5347,-5.539,-5.5451,-5.5534,-5.5588,-5.5668,-5.5813,-5.5828,-5.5877,-5.5892,-5.5905,-5.5919,-5.5997,-5.6019,-5.5783,-5.5783,-5.5782,0,0,-5.4938,-5.4988,-5.5041,-5.5153,-5.5199,-5.5286,-5.5227,-5.5322,-5.5386,-5.5361,-5.5481,-5.5515,-5.5584,-5.572,-5.5781,-5.5752,-5.5988,-5.5918,-5.5928,-5.5935,-5.601,-5.6033,-5.6053,-5.579,-5.5789,-5.5787,0,0,-5.5087,-5.5134,-5.5237,-5.5285,-5.5357,-5.5379,-5.5403,-5.5471,-5.5492,-5.5613,-5.5596,-5.5673,-5.5816,-5.5866,-5.591,-5.6078,-5.6061,-5.6104,-5.6185,-5.6261,-5.628,-5.6296,-5.6356,-5.6377,-5.6118,-5.6118,-5.6118,0,-5.515,-5.528,-5.5291,-5.5387,-5.5437,-5.5418,-5.5522,-5.5569,-5.5663,-5.5697,-5.5663,-5.5841,-5.5887,-5.6033,-5.6074,-5.6111,-5.6139,-5.6095,-5.6276,-5.6293,-5.6309,-5.6365,-5.6388,-5.6122,-5.6122,-5.6121,-5.6121,0,-5.5353,-5.5443,-5.5518,-5.5609,-5.5667,-5.5766,-5.5793,-5.585,-5.585,-5.5875,-5.5998,-5.6052,-5.6142,-5.6177,-5.6178,-5.6324,-5.6303,-5.6273,-5.6211,-5.6336,-5.6389,-5.6411,-5.6129,-5.6127,-5.6126,-5.6125,0,0,-5.5538,-5.5633,-5.5661,-5.5701,-5.5779,-5.5849,-5.5948,-5.6035,-5.6084,-5.615,-5.6233,-5.6354,-5.6326,-5.6376,-5.6383,-5.645,-5.6579,-5.6411,-5.6413,-5.644,-5.6742,-5.6764,-5.6789,-5.6568,-5.6572,-5.6576,-5.6736,0,-5.5693,-5.5866,-5.5879,-5.6036,-5.6119,-5.6103,-5.6189,-5.6246,-5.6273,-5.6347,-5.6377,-5.6462,-5.6419,-5.6449,-5.6515,-5.6549,-5.664,-5.6538,-5.6645,-5.6649,-5.6627,-5.6817,-5.684,-5.6989,-5.6757,-5.6761,-5.6763,0,-5.5897,-5.5968,-5.6133,-5.6199,-5.6234,-5.6311,-5.6392,-5.6464,-5.6528,-5.6543,-5.6599,-5.6596,-5.6697,-5.6633,-5.6772,-5.6703,-5.6747,-5.6771,-5.6777,-5.6786,-5.6713,-5.6831,-5.7037,-5.7058,-5.6796,-5.6794,-5.6791,0,-5.6014,-5.6151,-5.6267,-5.6303,-5.6383,-5.6437,-5.6473,-5.6533,-5.6585,-5.6656,-5.6689,-5.6772,-5.6816,-5.688,-5.6899,-5.685,-5.7038,-5.6975,-5.7053,-5.7052,-5.7092,-5.7089,-5.7307,-5.7123,-5.7123,-5.7122,-5.7122,0,-5.6185,-5.6286,-5.6321,-5.6392,-5.6505,-5.6519,-5.6631,-5.6663,-5.6717,-5.6794,-5.6786,-5.6859,-5.688,-5.6957,-5.6973,-5.7086,-5.7106,-5.7121,-5.7123,-5.7121,-5.7119,-5.7149,-5.7139,-5.7128,-5.7127,-5.7126,-5.7125,0,-5.6334,-5.6362,-5.6487,-5.6552,-5.6571,-5.6651,-5.6707,-5.6776,-5.6801,-5.6899,-5.6923,-5.6963,-5.7053,-5.7079,-5.7187,-5.7197,-5.7329,-5.7323,-5.7307,-5.7307,-5.7383,-5.7375,-5.7627,-5.7661,-5.7456,-5.7458,-5.7459,0,-5.6441,-5.6519,-5.6592,-5.6643,-5.6681,-5.6764,-5.6816,-5.6834,-5.6889,-5.6968,-5.7027,-5.7116,-5.7187,-5.7332,-5.737,-5.7453,-5.7448,-5.7531,-5.746,-5.7455,-5.7448,-5.7443,-5.745,-5.7544,-5.7546,-5.7548,-5.7549,0,-5.6628,-5.6637,-5.6713,-5.6794,-5.6857,-5.6922,-5.6984,-5.7026,-5.7053,-5.7115,-5.7206,-5.7262,-5.7372,-5.746,-5.7544,-5.7581,-5.757,-5.7571,-5.7593,-5.7591,-5.7578,-5.7585,-5.7343,-5.7565,-5.7563,-5.7562,-5.7561,-5.7561,-5.6759,-5.6826,-5.6888,-5.6973,-5.7022,-5.708,-5.7147,-5.7181,-5.7258,-5.7348,-5.7354,-5.7453,-5.7516,-5.7627,-5.7668,-5.7746,-5.7722,-5.7754,-5.7762,-5.777,-5.7775,-5.7566,-5.7762,-5.7761,-5.7761,-5.7761,-5.776,0,-5.6944,-5.6983,-5.7061,-5.7148,-5.7214,-5.7198,-5.7266,-5.7323,-5.741,-5.7469,-5.754,-5.7645,-5.773,-5.7776,-5.7861,-5.7914,-5.7911,-5.7936,-5.7932,-5.794,-5.7793,-5.7765,-5.7937,-5.7937,-5.7937,-5.7937,-5.7937,-5.7937,-5.7048,-5.7161,-5.7178,-5.7316,-5.7354,-5.7451,-5.7491,-5.7544,-5.7592,-5.7709,-5.778,-5.7809,-5.7863,-5.7952,-5.8029,-5.804,-5.8072,-5.8099,-5.8107,-5.7969,-5.7951,-5.7933,-5.7907,-5.8106,-5.8106,-5.8248,-5.8249,-5.825]}]]